TimeEDT,TemperatureF,Dew PointF,Humidity,Sea Level PressureIn,VisibilityMPH,Wind Direction,Wind SpeedMPH,Gust SpeedMPH,PrecipitationIn,Events,Conditions,WindDirDegrees,DateUTC
12:15 AM,42.8,42.8,100,30.16,7.0,Calm,Calm,-,N/A,,Unknown,0,2012-10-22 04:15:00
12:35 AM,42.8,42.8,100,30.16,7.0,Calm,Calm,-,N/A,,Unknown,0,2012-10-22 04:35:00
12:55 AM,42.8,42.8,100,30.16,7.0,Calm,Calm,-,N/A,,Unknown,0,2012-10-22 04:55:00
1:35 AM,42.8,42.8,100,30.16,7.0,Calm,Calm,-,N/A,,Unknown,0,2012-10-22 05:35:00
1:55 AM,41.0,41.0,100,30.16,7.0,Calm,Calm,-,N/A,,Unknown,0,2012-10-22 05:55:00
2:15 AM,41.0,41.0,100,30.16,7.0,Calm,Calm,-,N/A,,Unknown,0,2012-10-22 06:15:00
2:55 AM,-9999,-9999,N/A,30.17,7.0,Calm,Calm,-,N/A,,Unknown,0,2012-10-22 06:55:00
3:15 AM,-9999,-9999,N/A,30.17,7.0,Calm,Calm,-,N/A,,Unknown,0,2012-10-22 07:15:00
3:55 AM,-9999,-9999,N/A,30.17,5.0,Calm,Calm,-,N/A,,Haze,0,2012-10-22 07:55:00
4:15 AM,-9999,-9999,N/A,30.17,5.0,Calm,Calm,-,N/A,,Haze,0,2012-10-22 08:15:00
4:35 AM,-9999,-9999,N/A,30.17,5.0,Calm,Calm,-,N/A,,Haze,0,2012-10-22 08:35:00
5:15 AM,-9999,-9999,N/A,30.18,5.0,Calm,Calm,-,N/A,,Haze,0,2012-10-22 09:15:00
5:35 AM,-9999,-9999,N/A,30.18,5.0,Calm,Calm,-,N/A,,Haze,0,2012-10-22 09:35:00
5:55 AM,-9999,-9999,N/A,30.19,7.0,Calm,Calm,-,N/A,,Unknown,0,2012-10-22 09:55:00
6:15 AM,37.4,37.4,100,30.20,7.0,Calm,Calm,-,N/A,,Unknown,0,2012-10-22 10:15:00
6:35 AM,37.4,37.4,100,30.20,7.0,Calm,Calm,-,N/A,,Unknown,0,2012-10-22 10:35:00
7:15 AM,37.4,37.4,100,30.22,4.0,Calm,Calm,-,N/A,,Mist,0,2012-10-22 11:15:00
7:35 AM,35.6,35.6,100,30.23,10.0,Calm,Calm,-,N/A,,Unknown,0,2012-10-22 11:35:00
8:15 AM,39.2,39.2,100,30.23,7.0,Calm,Calm,-,N/A,,Unknown,0,2012-10-22 12:15:00
9:15 AM,46.4,46.4,100,30.24,10.0,Calm,Calm,-,N/A,,Unknown,0,2012-10-22 13:15:00
9:35 AM,50.0,48.2,94,30.24,10.0,Calm,Calm,-,N/A,,Unknown,0,2012-10-22 13:35:00
10:15 AM,55.4,46.4,72,30.25,10.0,Calm,Calm,-,N/A,,Unknown,0,2012-10-22 14:15:00
10:35 AM,59.0,46.4,63,30.24,10.0,Calm,Calm,-,N/A,,Unknown,0,2012-10-22 14:35:00
10:55 AM,60.8,48.2,63,30.24,7.0,Calm,Calm,-,N/A,,Unknown,0,2012-10-22 14:55:00
11:15 AM,60.8,48.2,63,30.24,10.0,Calm,Calm,-,N/A,,Unknown,0,2012-10-22 15:15:00
11:35 AM,62.6,46.4,55,30.24,10.0,Calm,Calm,-,N/A,,Unknown,0,2012-10-22 15:35:00
11:55 AM,64.4,48.2,56,30.24,10.0,Calm,Calm,-,N/A,,Unknown,0,2012-10-22 15:55:00
12:15 PM,66.2,48.2,52,30.23,10.0,Calm,Calm,-,N/A,,Unknown,0,2012-10-22 16:15:00
12:35 PM,68.0,48.2,49,30.23,10.0,Calm,Calm,-,N/A,,Unknown,0,2012-10-22 16:35:00
12:55 PM,68.0,48.2,49,30.21,10.0,Calm,Calm,-,N/A,,Unknown,0,2012-10-22 16:55:00
1:15 PM,68.0,46.4,46,30.21,10.0,Calm,Calm,-,N/A,,Unknown,0,2012-10-22 17:15:00
1:35 PM,69.8,46.4,43,30.19,10.0,North,3.5,-,N/A,,Unknown,350,2012-10-22 17:35:00
1:55 PM,69.8,46.4,43,30.19,10.0,South,3.5,-,N/A,,Unknown,190,2012-10-22 17:55:00
2:15 PM,71.6,44.6,38,30.18,10.0,West,3.5,-,N/A,,Unknown,280,2012-10-22 18:15:00
2:35 PM,71.6,46.4,41,30.17,10.0,WSW,3.5,-,N/A,,Unknown,250,2012-10-22 18:35:00
2:55 PM,71.6,46.4,41,30.17,10.0,Calm,Calm,-,N/A,,Unknown,0,2012-10-22 18:55:00
3:15 PM,71.6,46.4,41,30.16,10.0,Calm,Calm,-,N/A,,Unknown,0,2012-10-22 19:15:00
3:55 PM,71.6,46.4,41,30.16,10.0,WNW,3.5,-,N/A,,Unknown,290,2012-10-22 19:55:00
4:15 PM,71.6,46.4,41,30.16,10.0,Calm,Calm,-,N/A,,Unknown,0,2012-10-22 20:15:00
4:35 PM,71.6,46.4,41,30.15,10.0,Calm,Calm,-,N/A,,Unknown,0,2012-10-22 20:35:00
4:55 PM,71.6,46.4,41,30.15,10.0,Calm,Calm,-,N/A,,Unknown,0,2012-10-22 20:55:00
5:15 PM,71.6,50.0,46,30.15,10.0,Calm,Calm,-,N/A,,Unknown,0,2012-10-22 21:15:00
5:35 PM,69.8,50.0,49,30.15,10.0,Calm,Calm,-,N/A,,Unknown,0,2012-10-22 21:35:00
5:55 PM,68.0,48.2,49,30.15,10.0,Calm,Calm,-,N/A,,Unknown,0,2012-10-22 21:55:00
6:15 PM,64.4,48.2,56,30.15,10.0,Calm,Calm,-,N/A,,Unknown,0,2012-10-22 22:15:00
6:35 PM,62.6,50.0,63,30.16,10.0,Calm,Calm,-,N/A,,Unknown,0,2012-10-22 22:35:00
7:15 PM,60.8,50.0,68,30.16,10.0,Calm,Calm,-,N/A,,Unknown,0,2012-10-22 23:15:00
7:35 PM,59.0,50.0,72,30.17,10.0,Calm,Calm,-,N/A,,Unknown,0,2012-10-22 23:35:00
7:55 PM,55.4,50.0,82,30.17,10.0,Calm,Calm,-,N/A,,Unknown,0,2012-10-22 23:55:00
8:15 PM,55.4,50.0,82,30.17,10.0,Calm,Calm,-,N/A,,Unknown,0,2012-10-23 00:15:00
8:35 PM,55.4,50.0,82,30.17,10.0,Calm,Calm,-,N/A,,Unknown,0,2012-10-23 00:35:00
8:55 PM,53.6,51.8,94,30.18,10.0,Calm,Calm,-,N/A,,Unknown,0,2012-10-23 00:55:00
9:15 PM,53.6,51.8,94,30.18,10.0,Calm,Calm,-,N/A,,Unknown,0,2012-10-23 01:15:00
9:35 PM,51.8,51.8,100,30.19,10.0,Calm,Calm,-,N/A,,Unknown,0,2012-10-23 01:35:00
9:55 PM,51.8,51.8,100,30.19,10.0,Calm,Calm,-,N/A,,Unknown,0,2012-10-23 01:55:00
10:35 PM,51.8,51.8,100,30.19,10.0,Calm,Calm,-,N/A,,Unknown,0,2012-10-23 02:35:00
10:55 PM,50.0,50.0,100,30.19,10.0,Calm,Calm,-,N/A,,Unknown,0,2012-10-23 02:55:00
11:15 PM,50.0,50.0,100,30.19,10.0,Calm,Calm,-,N/A,,Unknown,0,2012-10-23 03:15:00
11:55 PM,50.0,50.0,100,30.19,10.0,Calm,Calm,-,N/A,,Unknown,0,2012-10-23 03:55:00